Weather in Masali

Russia / Tyumen Oblast     56°04′27″N   66°34′05″E
temp.,
°C
wind,
m/s
gust,
m/s
humid.,
%
clouds,
%
prec.,
mm/h
press.,
hPa
HPBL,
m
26 february, fri
fri2623:00−26wnw3399100 0.1 102842
02:00−27w239987 0.0 102921
05:00−28w2310090 0.1 103019
08:00−29wsw2310096 0.0 103019
11:00−23sw239698 0.0 1031214
14:00−20ssw3491100 0.0 1031388
17:00−20s3497100 0.1 103185
20:00−25ssw449768 0.0 103164
27 february, sat
sat2723:00−28s349434 0.0 103043
02:00−30s34951 0.0 103061
05:00−30sse469836 0.0 103087
08:00−31sse499851 0.0 1029139
11:00−26sse579430 0.0 1028242
14:00−22se58930 0.0 1025298
17:00−21se6119317 0.0 1023304
20:00−20se71396100 0.2 1021358
28 february, sun
sun2823:00−16se71294100 0.9 1019477
02:00−14se71294100 0.4 1016539
05:00−13se71293100 0.9 1014507
08:00−14ese71294100 0.4 1012436
11:00−12ese71194100 0.9 1011503
14:00−11ese61093100 0.5 1009577
17:00−11e61092100 0.9 1009518
20:00−13ene5109399 0.1 1008349
1 march, mon
mon123:00−14ene5994100 0.2 1009304
02:00−16ne479594 0.1 1010235
05:00−17nne369693 0.1 1011176
08:00−18nne4696100 0.1 1012224
11:00−17n4594100 0.1 1013287
14:00−15n4692100 0.1 1014407
17:00−15nnw4693100 0.2 1016424
20:00−16nw359799 0.1 1017129
2 march, tue
tue223:00−17wnw339793 0.1 101956
02:00−20wnw2310087 0.1 101831
05:00−23w339979 0.1 101825
08:00−24wsw339946 0.0 101840
11:00−18sw359541 0.0 1017236
14:00−14ssw469367 0.0 1016336
17:00−15ssw479383 0.0 1015274
20:00−18ssw5109674 0.0 1014197